SUR4140 SAWC-SAEZ

Flight info

Callsign SUR4140
Flight time N/A
Altitude 35000
Route BOKUK UW48 CRV UP664 TRE UT693 BCA UW22 VALOS
Aircraft B738/M-V/N

Departure

Time N/A
Airport El Calafate - Commander Armando Tola International Airport (SAWC)

Arrival

Time 2026-05-06 13:59
Airport Ezeiza International Airport - Ministro Pistarini (SAEZ)
Time Latitude Longitude Altitude Speed Heading
2026-05-06 13:02 -39.54614 -62.69432 35002 ft 465 kts 28°
2026-05-06 13:02 -39.51755 -62.67457 35006 ft 465 kts 28°
2026-05-06 13:03 -39.46010 -62.63589 34997 ft 465 kts 26°
2026-05-06 13:03 -39.40234 -62.59848 35002 ft 465 kts 26°
2026-05-06 13:04 -39.34446 -62.56108 35005 ft 465 kts 26°
2026-05-06 13:04 -39.28705 -62.52382 34998 ft 465 kts 26°
2026-05-06 13:05 -39.22925 -62.48627 35004 ft 465 kts 26°
2026-05-06 13:05 -39.17155 -62.44884 35009 ft 465 kts 26°
2026-05-06 13:06 -39.11376 -62.41144 34995 ft 465 kts 26°
2026-05-06 13:06 -39.06615 -62.38068 35005 ft 465 kts 26°
2026-05-06 13:07 -39.00796 -62.34315 35000 ft 465 kts 26°
2026-05-06 13:07 -38.95014 -62.30593 34996 ft 465 kts 26°
2026-05-06 13:08 -38.89260 -62.26895 35006 ft 465 kts 26°
2026-05-06 13:08 -38.83478 -62.23185 35000 ft 465 kts 26°
2026-05-06 13:09 -38.77694 -62.19481 35004 ft 465 kts 26°
2026-05-06 13:09 -38.71916 -62.15758 35003 ft 465 kts 28°
2026-05-06 13:10 -38.66406 -62.11423 35002 ft 465 kts 34°
2026-05-06 13:10 -38.61189 -62.06500 35002 ft 466 kts 37°
2026-05-06 13:11 -38.56041 -62.01475 34997 ft 466 kts 36°
2026-05-06 13:11 -38.50805 -61.96598 34998 ft 466 kts 35°
2026-05-06 13:12 -38.45514 -61.91815 34998 ft 466 kts 35°
2026-05-06 13:12 -38.40202 -61.87047 35007 ft 466 kts 35°
2026-05-06 13:13 -38.34900 -61.82285 35010 ft 467 kts 35°
2026-05-06 13:13 -38.29595 -61.77521 34997 ft 467 kts 35°
2026-05-06 13:14 -38.24275 -61.72751 34999 ft 467 kts 35°
2026-05-06 13:14 -38.18966 -61.68000 35007 ft 467 kts 35°
2026-05-06 13:15 -38.13656 -61.63257 35009 ft 468 kts 35°
2026-05-06 13:15 -38.08323 -61.58501 35000 ft 468 kts 35°
2026-05-06 13:16 -38.02996 -61.53758 35003 ft 468 kts 35°
2026-05-06 13:16 -37.97671 -61.49026 34998 ft 468 kts 35°
2026-05-06 13:17 -37.92329 -61.44294 35008 ft 468 kts 34°
2026-05-06 13:17 -37.86999 -61.39583 35001 ft 467 kts 34°
2026-05-06 13:18 -37.81671 -61.34879 35004 ft 467 kts 34°
2026-05-06 13:18 -37.76340 -61.30181 35003 ft 467 kts 34°
2026-05-06 13:19 -37.71012 -61.25492 35005 ft 467 kts 34°
2026-05-06 13:19 -37.66020 -61.21107 34998 ft 467 kts 34°
2026-05-06 13:20 -37.60688 -61.16432 35001 ft 467 kts 34°
2026-05-06 13:20 -37.55354 -61.11763 35007 ft 467 kts 34°
2026-05-06 13:21 -37.50024 -61.07106 35005 ft 466 kts 34°
2026-05-06 13:21 -37.44684 -61.02448 34999 ft 466 kts 34°
2026-05-06 13:22 -37.39352 -60.97806 35004 ft 466 kts 34°
2026-05-06 13:22 -37.34119 -60.93258 34998 ft 466 kts 34°
2026-05-06 13:23 -37.28783 -60.88628 34998 ft 466 kts 34°
2026-05-06 13:23 -37.23445 -60.84004 34999 ft 466 kts 34°
2026-05-06 13:24 -37.18104 -60.79386 35000 ft 466 kts 34°
2026-05-06 13:24 -37.12752 -60.74768 35004 ft 466 kts 34°
2026-05-06 13:25 -37.07409 -60.70164 35003 ft 466 kts 34°
2026-05-06 13:25 -37.02065 -60.65567 34998 ft 466 kts 34°
2026-05-06 13:26 -36.96718 -60.60976 34998 ft 466 kts 34°
2026-05-06 13:26 -36.91370 -60.56392 35002 ft 466 kts 34°
2026-05-06 13:27 -36.86018 -60.51812 34998 ft 466 kts 34°
2026-05-06 13:27 -36.80693 -60.47263 34997 ft 466 kts 34°
2026-05-06 13:28 -36.75340 -60.42696 35008 ft 466 kts 34°
2026-05-06 13:28 -36.69984 -60.38138 35000 ft 466 kts 34°
2026-05-06 13:29 -36.64659 -60.33617 34994 ft 458 kts 34°
2026-05-06 13:29 -36.59418 -60.29172 34997 ft 454 kts 34°
2026-05-06 13:30 -36.54193 -60.24747 34549 ft 452 kts 34°
2026-05-06 13:30 -36.51616 -60.22567 34122 ft 445 kts 34°
2026-05-06 13:30 -36.49060 -60.20413 33704 ft 440 kts 34°
2026-05-06 13:30 -36.46551 -60.18308 33285 ft 434 kts 34°
2026-05-06 13:31 -36.44057 -60.16219 32864 ft 430 kts 34°
2026-05-06 13:31 -36.41594 -60.14158 32448 ft 425 kts 34°
2026-05-06 13:31 -36.39151 -60.12114 32034 ft 421 kts 34°
2026-05-06 13:31 -36.36731 -60.10091 31622 ft 417 kts 34°
2026-05-06 13:32 -36.34340 -60.08092 31217 ft 413 kts 34°
2026-05-06 13:32 -36.31977 -60.06118 30815 ft 410 kts 34°
2026-05-06 13:32 -36.29633 -60.04160 30419 ft 407 kts 33°
2026-05-06 13:32 -36.27300 -60.02214 30024 ft 403 kts 33°
2026-05-06 13:33 -36.25009 -60.00303 29624 ft 400 kts 33°
2026-05-06 13:33 -36.22684 -59.98366 29217 ft 397 kts 33°
2026-05-06 13:33 -36.20427 -59.96486 28814 ft 393 kts 33°
2026-05-06 13:33 -36.18171 -59.94609 28412 ft 390 kts 33°
2026-05-06 13:34 -36.15923 -59.92740 28015 ft 387 kts 33°
2026-05-06 13:34 -36.13700 -59.90893 27613 ft 384 kts 33°
2026-05-06 13:34 -36.11485 -59.89054 27216 ft 382 kts 33°
2026-05-06 13:34 -36.09287 -59.87230 26823 ft 379 kts 33°
2026-05-06 13:35 -36.07111 -59.85426 26434 ft 376 kts 33°
2026-05-06 13:35 -36.04945 -59.83631 26045 ft 374 kts 33°
2026-05-06 13:35 -36.02788 -59.81845 25658 ft 372 kts 33°
2026-05-06 13:35 -36.00642 -59.80069 25273 ft 370 kts 33°
2026-05-06 13:36 -35.98482 -59.78283 24898 ft 377 kts 33°
2026-05-06 13:36 -35.96275 -59.76459 24505 ft 385 kts 33°
2026-05-06 13:36 -35.94058 -59.74628 24094 ft 382 kts 33°
2026-05-06 13:36 -35.91859 -59.72813 23688 ft 379 kts 33°
2026-05-06 13:37 -35.89680 -59.71016 23291 ft 375 kts 33°
2026-05-06 13:37 -35.87520 -59.69236 22895 ft 372 kts 33°
2026-05-06 13:37 -35.85381 -59.67474 22511 ft 368 kts 33°
2026-05-06 13:37 -35.83259 -59.65727 22117 ft 365 kts 33°
2026-05-06 13:38 -35.81156 -59.63998 21745 ft 362 kts 33°
2026-05-06 13:38 -35.79072 -59.62284 21368 ft 359 kts 33°
2026-05-06 13:38 -35.77002 -59.60584 20991 ft 356 kts 33°
2026-05-06 13:38 -35.74948 -59.58898 20617 ft 353 kts 33°
2026-05-06 13:39 -35.72911 -59.57226 20250 ft 351 kts 33°
2026-05-06 13:39 -35.70886 -59.55566 19884 ft 348 kts 33°
2026-05-06 13:39 -35.68879 -59.53922 19520 ft 346 kts 33°
2026-05-06 13:39 -35.66883 -59.52287 19149 ft 343 kts 33°
2026-05-06 13:40 -35.64901 -59.50664 18786 ft 341 kts 33°
2026-05-06 13:40 -35.62931 -59.49053 18426 ft 339 kts 33°
2026-05-06 13:40 -35.60973 -59.47452 18068 ft 337 kts 33°
2026-05-06 13:40 -35.59025 -59.45861 17714 ft 335 kts 33°
2026-05-06 13:41 -35.57094 -59.44283 17355 ft 333 kts 33°
2026-05-06 13:41 -35.55173 -59.42715 17004 ft 331 kts 33°
2026-05-06 13:41 -35.53260 -59.41154 16652 ft 329 kts 33°
2026-05-06 13:41 -35.51361 -59.39606 16303 ft 327 kts 33°
2026-05-06 13:42 -35.49469 -59.38065 15954 ft 325 kts 33°
2026-05-06 13:42 -35.47591 -59.36530 15607 ft 324 kts 34°
2026-05-06 13:42 -35.45844 -59.34800 15257 ft 322 kts 45°
2026-05-06 13:42 -35.44592 -59.32548 14918 ft 320 kts 64°
2026-05-06 13:43 -35.43694 -59.30060 14589 ft 318 kts 67°
2026-05-06 13:43 -35.42813 -59.27617 14270 ft 316 kts 64°
2026-05-06 13:43 -35.41828 -59.25173 13912 ft 315 kts 63°
2026-05-06 13:43 -35.40825 -59.22793 13583 ft 314 kts 62°
2026-05-06 13:44 -35.39833 -59.20457 13245 ft 312 kts 62°
2026-05-06 13:44 -35.38848 -59.18126 12910 ft 311 kts 63°
2026-05-06 13:44 -35.37862 -59.15777 12577 ft 309 kts 63°
2026-05-06 13:44 -35.36885 -59.13438 12246 ft 308 kts 63°
2026-05-06 13:45 -35.35914 -59.11105 11914 ft 307 kts 63°
2026-05-06 13:45 -35.33987 -59.06465 11250 ft 304 kts 63°
2026-05-06 13:45 -35.33029 -59.04155 10919 ft 303 kts 63°
2026-05-06 13:46 -35.32078 -59.01862 10594 ft 301 kts 63°
2026-05-06 13:46 -35.31138 -58.99598 10403 ft 294 kts 63°
2026-05-06 13:46 -35.30225 -58.97399 10264 ft 285 kts 63°
2026-05-06 13:46 -35.29338 -58.95266 10131 ft 277 kts 63°
2026-05-06 13:47 -35.28478 -58.93197 10018 ft 269 kts 63°
2026-05-06 13:47 -35.27635 -58.91170 9770 ft 266 kts 63°
2026-05-06 13:47 -35.26798 -58.89160 9515 ft 265 kts 63°
2026-05-06 13:47 -35.25965 -58.87158 9237 ft 263 kts 63°
2026-05-06 13:48 -35.25135 -58.85167 8988 ft 262 kts 63°
2026-05-06 13:48 -35.24309 -58.83186 8719 ft 261 kts 63°
2026-05-06 13:48 -35.23487 -58.81215 8448 ft 260 kts 63°
2026-05-06 13:48 -35.22667 -58.79251 8181 ft 259 kts 63°
2026-05-06 13:49 -35.21850 -58.77293 7924 ft 258 kts 63°
2026-05-06 13:49 -35.21034 -58.75340 7642 ft 257 kts 63°
2026-05-06 13:49 -35.20225 -58.73404 7378 ft 256 kts 63°
2026-05-06 13:49 -35.19415 -58.71468 7113 ft 255 kts 63°
2026-05-06 13:50 -35.18617 -58.69561 6860 ft 255 kts 63°
2026-05-06 13:50 -35.17810 -58.67636 6586 ft 254 kts 63°
2026-05-06 13:50 -35.17006 -58.65716 6319 ft 253 kts 63°
2026-05-06 13:50 -35.16206 -58.63808 6060 ft 252 kts 63°
2026-05-06 13:51 -35.15451 -58.62007 5822 ft 251 kts 63°
2026-05-06 13:51 -35.14654 -58.60109 5551 ft 250 kts 63°
2026-05-06 13:51 -35.13862 -58.58223 5294 ft 249 kts 63°
2026-05-06 13:51 -35.13074 -58.56345 5034 ft 248 kts 63°
2026-05-06 13:52 -35.12288 -58.54476 4786 ft 247 kts 63°
2026-05-06 13:52 -35.11507 -58.52619 4561 ft 243 kts 63°
2026-05-06 13:52 -35.10749 -58.50818 4347 ft 232 kts 62°
2026-05-06 13:52 -35.10033 -58.49118 4241 ft 218 kts 62°
2026-05-06 13:53 -35.09360 -58.47524 4139 ft 206 kts 62°
2026-05-06 13:53 -35.08526 -58.46148 4005 ft 201 kts 37°
2026-05-06 13:53 -35.07276 -58.45414 3882 ft 202 kts 12°
2026-05-06 13:53 -35.06348 -58.45301 3787 ft 204 kts 356°
2026-05-06 13:54 -35.04455 -58.45680 3522 ft 207 kts 347°
2026-05-06 13:54 -35.03527 -58.45923 3396 ft 205 kts 347°
2026-05-06 13:54 -35.02142 -58.46284 3188 ft 201 kts 347°
2026-05-06 13:54 -35.00786 -58.46628 2993 ft 198 kts 347°
2026-05-06 13:55 -34.99434 -58.46970 2816 ft 198 kts 347°
2026-05-06 13:55 -34.98097 -58.47348 2624 ft 196 kts 344°
2026-05-06 13:55 -34.96784 -58.47807 2440 ft 197 kts 343°
2026-05-06 13:55 -34.95472 -58.48274 2240 ft 195 kts 343°
2026-05-06 13:56 -34.94207 -58.48721 2069 ft 183 kts 342°
2026-05-06 13:56 -34.92996 -58.49149 1830 ft 179 kts 343°
2026-05-06 13:56 -34.91833 -58.49552 1630 ft 171 kts 343°
2026-05-06 13:56 -34.90703 -58.49949 1435 ft 168 kts 343°
2026-05-06 13:57 -34.89577 -58.50345 1263 ft 169 kts 343°
2026-05-06 13:57 -34.88481 -58.50728 1078 ft 160 kts 343°
2026-05-06 13:57 -34.87432 -58.51095 880 ft 154 kts 343°
2026-05-06 13:57 -34.86438 -58.51441 691 ft 153 kts 343°
2026-05-06 13:58 -34.85410 -58.51798 508 ft 153 kts 343°
2026-05-06 13:58 -34.84384 -58.52155 331 ft 154 kts 343°
2026-05-06 13:58 -34.83355 -58.52513 145 ft 153 kts 344°
2026-05-06 13:58 -34.82364 -58.52859 75 ft 143 kts 344°
2026-05-06 13:59 -34.81714 -58.53091 70 ft 23 kts 343°
2026-05-06 13:59 -34.81585 -58.53140 70 ft 16 kts 334°
2026-05-06 13:59 -34.81520 -58.53240 74 ft 15 kts 300°
2026-05-06 13:59 -34.81469 -58.53346 68 ft 14 kts 300°
2026-05-06 14:00 -34.81423 -58.53448 74 ft 14 kts 298°
2026-05-06 14:00 -34.81383 -58.53549 74 ft 13 kts 276°
2026-05-06 14:00 -34.81442 -58.53621 74 ft 13 kts 210°
2026-05-06 14:00 -34.81479 -58.53676 70 ft 5 kts 304°
2026-05-06 14:01 -34.81451 -58.53701 72 ft 5 kts 320°
2026-05-06 14:01 -34.81444 -58.53709 74 ft 0 kts 320°